﻿_id,日時,10分間移動積算雨量(mm),1時間移動積算雨量(mm),日雨量(mm),累計雨量(mm)
1,2021-02-15T00:00:00,0,1.5,1.5,1.5
2,2021-02-15T00:01:00,0,1.5,0,1.5
3,2021-02-15T00:02:00,0,1.5,0,1.5
4,2021-02-15T00:03:00,0,1.5,0,1.5
5,2021-02-15T00:04:00,0,1.5,0,1.5
6,2021-02-15T00:05:00,0,1.5,0,1.5
7,2021-02-15T00:06:00,0,1.5,0,1.5
8,2021-02-15T00:07:00,0,1.5,0,1.5
9,2021-02-15T00:08:00,0,1.5,0,1.5
10,2021-02-15T00:09:00,0,1.5,0,1.5
11,2021-02-15T00:10:00,0,1.5,0,1.5
12,2021-02-15T00:11:00,0,1.5,0,1.5
13,2021-02-15T00:12:00,0,1.5,0,1.5
14,2021-02-15T00:13:00,0,1.5,0,1.5
15,2021-02-15T00:14:00,0,1,0,1.5
16,2021-02-15T00:15:00,0,1,0,1.5
17,2021-02-15T00:16:00,0,1,0,1.5
18,2021-02-15T00:17:00,0,1,0,1.5
19,2021-02-15T00:18:00,0,1,0,1.5
20,2021-02-15T00:19:00,0,1,0,1.5
21,2021-02-15T00:20:00,0,1,0,1.5
22,2021-02-15T00:21:00,0,1,0,1.5
23,2021-02-15T00:22:00,0,1,0,1.5
24,2021-02-15T00:23:00,0.5,1.5,0.5,2
25,2021-02-15T00:24:00,0.5,1.5,0.5,2
26,2021-02-15T00:25:00,0.5,1.5,0.5,2
27,2021-02-15T00:26:00,0.5,1.5,0.5,2
28,2021-02-15T00:27:00,0.5,1.5,0.5,2
29,2021-02-15T00:28:00,0.5,1.5,0.5,2
30,2021-02-15T00:29:00,0.5,1,0.5,2
31,2021-02-15T00:30:00,0.5,1,0.5,2
32,2021-02-15T00:31:00,0.5,1,0.5,2
33,2021-02-15T00:32:00,0.5,1,0.5,2
34,2021-02-15T00:33:00,0,1,0.5,2
35,2021-02-15T00:34:00,0,1,0.5,2
36,2021-02-15T00:35:00,0,1,0.5,2
37,2021-02-15T00:36:00,0,1,0.5,2
38,2021-02-15T00:37:00,0,1,0.5,2
39,2021-02-15T00:38:00,0,1,0.5,2
40,2021-02-15T00:39:00,0,1,0.5,2
41,2021-02-15T00:40:00,0,1,0.5,2
42,2021-02-15T00:41:00,0,1,0.5,2
43,2021-02-15T00:42:00,0,0.5,0.5,2
44,2021-02-15T00:43:00,0,0.5,0.5,2
45,2021-02-15T00:44:00,0,0.5,0.5,2
46,2021-02-15T00:45:00,0,0.5,0.5,2
47,2021-02-15T00:46:00,0,0.5,0.5,2
48,2021-02-15T00:47:00,0,0.5,0.5,2
49,2021-02-15T00:48:00,0,0.5,0.5,2
50,2021-02-15T00:49:00,0,0.5,0.5,2
51,2021-02-15T00:50:00,0,0.5,0.5,2
52,2021-02-15T00:51:00,0,0.5,0.5,2
53,2021-02-15T00:52:00,0,0.5,0.5,2
54,2021-02-15T00:53:00,0,0.5,0.5,2
55,2021-02-15T00:54:00,0,0.5,0.5,2
56,2021-02-15T00:55:00,0.5,1,1,2.5
57,2021-02-15T00:56:00,0.5,1,1,2.5
58,2021-02-15T00:57:00,0.5,1,1,2.5
59,2021-02-15T00:58:00,0.5,1,1,2.5
60,2021-02-15T00:59:00,0.5,1,1,2.5
61,2021-02-15T01:00:00,0.5,1,1,2.5
62,2021-02-15T01:01:00,0.5,1,1,2.5
63,2021-02-15T01:02:00,0.5,1,1,2.5
64,2021-02-15T01:03:00,0.5,1,1,2.5
65,2021-02-15T01:04:00,0.5,1,1,2.5
66,2021-02-15T01:05:00,0,1,1,2.5
67,2021-02-15T01:06:00,0,1,1,2.5
68,2021-02-15T01:07:00,0,1,1,2.5
69,2021-02-15T01:08:00,0,1,1,2.5
70,2021-02-15T01:09:00,0,1,1,2.5
71,2021-02-15T01:10:00,0,1,1,2.5
72,2021-02-15T01:11:00,0,1,1,2.5
73,2021-02-15T01:12:00,0,1,1,2.5
74,2021-02-15T01:13:00,0,1,1,2.5
75,2021-02-15T01:14:00,0,1,1,2.5
76,2021-02-15T01:15:00,0,1,1,2.5
77,2021-02-15T01:16:00,0.5,1.5,1.5,3
78,2021-02-15T01:17:00,0.5,1.5,1.5,3
79,2021-02-15T01:18:00,0.5,1.5,1.5,3
80,2021-02-15T01:19:00,0.5,1.5,1.5,3
81,2021-02-15T01:20:00,0.5,1.5,1.5,3
82,2021-02-15T01:21:00,0.5,1.5,1.5,3
83,2021-02-15T01:22:00,0.5,1.5,1.5,3
84,2021-02-15T01:23:00,0.5,1,1.5,3
85,2021-02-15T01:24:00,0.5,1,1.5,3
86,2021-02-15T01:25:00,0.5,1,1.5,3
87,2021-02-15T01:26:00,0,1,1.5,3
88,2021-02-15T01:27:00,0,1,1.5,3
89,2021-02-15T01:28:00,0,1,1.5,3
90,2021-02-15T01:29:00,0,1,1.5,3
91,2021-02-15T01:30:00,0,1,1.5,3
92,2021-02-15T01:31:00,0,1,1.5,3
93,2021-02-15T01:32:00,0,1,1.5,3
94,2021-02-15T01:33:00,0,1,1.5,3
95,2021-02-15T01:34:00,0.5,1.5,2,3.5
96,2021-02-15T01:35:00,0.5,1.5,2,3.5
97,2021-02-15T01:36:00,0.5,1.5,2,3.5
98,2021-02-15T01:37:00,0.5,1.5,2,3.5
99,2021-02-15T01:38:00,0.5,1.5,2,3.5
100,2021-02-15T01:39:00,0.5,1.5,2,3.5
101,2021-02-15T01:40:00,0.5,1.5,2,3.5
102,2021-02-15T01:41:00,0.5,1.5,2,3.5
103,2021-02-15T01:42:00,0.5,1.5,2,3.5
104,2021-02-15T01:43:00,0.5,1.5,2,3.5
105,2021-02-15T01:44:00,0,1.5,2,3.5
106,2021-02-15T01:45:00,0,1.5,2,3.5
107,2021-02-15T01:46:00,0,1.5,2,3.5
108,2021-02-15T01:47:00,0.5,2,2.5,4
109,2021-02-15T01:48:00,0.5,2,2.5,4
110,2021-02-15T01:49:00,0.5,2,2.5,4
111,2021-02-15T01:50:00,0.5,2,2.5,4
112,2021-02-15T01:51:00,0.5,2,2.5,4
113,2021-02-15T01:52:00,0.5,2,2.5,4
114,2021-02-15T01:53:00,0.5,2,2.5,4
115,2021-02-15T01:54:00,0.5,2,2.5,4
116,2021-02-15T01:55:00,0.5,1.5,2.5,4
117,2021-02-15T01:56:00,1,2,3,4.5
118,2021-02-15T01:57:00,0.5,2,3,4.5
119,2021-02-15T01:58:00,0.5,2,3,4.5
120,2021-02-15T01:59:00,0.5,2,3,4.5
121,2021-02-15T02:00:00,0.5,2,3,4.5
122,2021-02-15T02:01:00,0.5,2,3,4.5
123,2021-02-15T02:02:00,0.5,2,3,4.5
124,2021-02-15T02:03:00,0.5,2,3,4.5
125,2021-02-15T02:04:00,0.5,2,3,4.5
126,2021-02-15T02:05:00,0.5,2,3,4.5
127,2021-02-15T02:06:00,0,2,3,4.5
128,2021-02-15T02:07:00,0,2,3,4.5
129,2021-02-15T02:08:00,0,2,3,4.5
130,2021-02-15T02:09:00,0,2,3,4.5
131,2021-02-15T02:10:00,0,2,3,4.5
132,2021-02-15T02:11:00,0,2,3,4.5
133,2021-02-15T02:12:00,0,2,3,4.5
134,2021-02-15T02:13:00,0,2,3,4.5
135,2021-02-15T02:14:00,0,2,3,4.5
136,2021-02-15T02:15:00,0,2,3,4.5
137,2021-02-15T02:16:00,0,1.5,3,4.5
138,2021-02-15T02:17:00,0,1.5,3,4.5
139,2021-02-15T02:18:00,0,1.5,3,4.5
140,2021-02-15T02:19:00,0,1.5,3,4.5
141,2021-02-15T02:20:00,0,1.5,3,4.5
142,2021-02-15T02:21:00,0,1.5,3,4.5
143,2021-02-15T02:22:00,0,1.5,3,4.5
144,2021-02-15T02:23:00,0,1.5,3,4.5
145,2021-02-15T02:24:00,0,1.5,3,4.5
146,2021-02-15T02:25:00,0,1.5,3,4.5
147,2021-02-15T02:26:00,0.5,2,3.5,5
148,2021-02-15T02:27:00,0.5,2,3.5,5
149,2021-02-15T02:28:00,0.5,2,3.5,5
150,2021-02-15T02:29:00,0.5,2,3.5,5
151,2021-02-15T02:30:00,0.5,2,3.5,5
152,2021-02-15T02:31:00,0.5,2,3.5,5
153,2021-02-15T02:32:00,0.5,2,3.5,5
154,2021-02-15T02:33:00,0.5,2,3.5,5
155,2021-02-15T02:34:00,0.5,1.5,3.5,5
156,2021-02-15T02:35:00,0.5,1.5,3.5,5
157,2021-02-15T02:36:00,0,1.5,3.5,5
158,2021-02-15T02:37:00,0,1.5,3.5,5
159,2021-02-15T02:38:00,0,1.5,3.5,5
160,2021-02-15T02:39:00,0,1.5,3.5,5
161,2021-02-15T02:40:00,0,1.5,3.5,5
162,2021-02-15T02:41:00,0,1.5,3.5,5
163,2021-02-15T02:42:00,0,1.5,3.5,5
164,2021-02-15T02:43:00,0,1.5,3.5,5
165,2021-02-15T02:44:00,0,1.5,3.5,5
166,2021-02-15T02:45:00,0,1.5,3.5,5
167,2021-02-15T02:46:00,0,1.5,3.5,5
168,2021-02-15T02:47:00,0,1,3.5,5
169,2021-02-15T02:48:00,0,1,3.5,5
170,2021-02-15T02:49:00,0,1,3.5,5
171,2021-02-15T02:50:00,0,1,3.5,5
172,2021-02-15T02:51:00,0,1,3.5,5
173,2021-02-15T02:52:00,0,1,3.5,5
174,2021-02-15T02:53:00,0,1,3.5,5
175,2021-02-15T02:54:00,0,1,3.5,5
176,2021-02-15T02:55:00,0,1,3.5,5
177,2021-02-15T02:56:00,0,0.5,3.5,5
178,2021-02-15T02:57:00,0,0.5,3.5,5
179,2021-02-15T02:58:00,0,0.5,3.5,5
180,2021-02-15T02:59:00,0,0.5,3.5,5
181,2021-02-15T03:00:00,0,0.5,3.5,5
182,2021-02-15T03:01:00,0,0.5,3.5,5
183,2021-02-15T03:02:00,0,0.5,3.5,5
184,2021-02-15T03:03:00,0,0.5,3.5,5
185,2021-02-15T03:04:00,0,0.5,3.5,5
186,2021-02-15T03:05:00,0,0.5,3.5,5
187,2021-02-15T03:06:00,0,0.5,3.5,5
188,2021-02-15T03:07:00,0,0.5,3.5,5
189,2021-02-15T03:08:00,0,0.5,3.5,5
190,2021-02-15T03:09:00,0,0.5,3.5,5
191,2021-02-15T03:10:00,0,0.5,3.5,5
192,2021-02-15T03:11:00,0,0.5,3.5,5
193,2021-02-15T03:12:00,0,0.5,3.5,5
194,2021-02-15T03:13:00,0,0.5,3.5,5
195,2021-02-15T03:14:00,0,0.5,3.5,5
196,2021-02-15T03:15:00,0,0.5,3.5,5
197,2021-02-15T03:16:00,0,0.5,3.5,5
198,2021-02-15T03:17:00,0,0.5,3.5,5
199,2021-02-15T03:18:00,0,0.5,3.5,5
200,2021-02-15T03:19:00,0,0.5,3.5,5
201,2021-02-15T03:20:00,0,0.5,3.5,5
202,2021-02-15T03:21:00,0,0.5,3.5,5
203,2021-02-15T03:22:00,0,0.5,3.5,5
204,2021-02-15T03:23:00,0,0.5,3.5,5
205,2021-02-15T03:24:00,0,0.5,3.5,5
206,2021-02-15T03:25:00,0,0.5,3.5,5
207,2021-02-15T03:26:00,0,0,3.5,5
208,2021-02-15T03:27:00,0,0,3.5,5
209,2021-02-15T03:28:00,0.5,0.5,4,5.5
210,2021-02-15T03:29:00,0.5,0.5,4,5.5
211,2021-02-15T03:30:00,0.5,0.5,4,5.5
212,2021-02-15T03:31:00,0.5,0.5,4,5.5
213,2021-02-15T03:32:00,0.5,0.5,4,5.5
214,2021-02-15T03:33:00,0.5,0.5,4,5.5
215,2021-02-15T03:34:00,0.5,0.5,4,5.5
216,2021-02-15T03:35:00,0.5,0.5,4,5.5
217,2021-02-15T03:36:00,0.5,0.5,4,5.5
218,2021-02-15T03:37:00,0.5,0.5,4,5.5
219,2021-02-15T03:38:00,0,0.5,4,5.5
220,2021-02-15T03:39:00,0,0.5,4,5.5
221,2021-02-15T03:40:00,0,0.5,4,5.5
222,2021-02-15T03:41:00,0,0.5,4,5.5
223,2021-02-15T03:42:00,0,0.5,4,5.5
224,2021-02-15T03:43:00,0,0.5,4,5.5
225,2021-02-15T03:44:00,0,0.5,4,5.5
226,2021-02-15T03:45:00,0.5,1,4.5,6
227,2021-02-15T03:46:00,0.5,1,4.5,6
228,2021-02-15T03:47:00,0.5,1,4.5,6
229,2021-02-15T03:48:00,0.5,1,4.5,6
230,2021-02-15T03:49:00,0.5,1,4.5,6
231,2021-02-15T03:50:00,0.5,1,4.5,6
232,2021-02-15T03:51:00,1,1.5,5,6.5
233,2021-02-15T03:52:00,1,1.5,5,6.5
234,2021-02-15T03:53:00,1,1.5,5,6.5
235,2021-02-15T03:54:00,1,1.5,5,6.5
236,2021-02-15T03:55:00,0.5,1.5,5,6.5
237,2021-02-15T03:56:00,0.5,1.5,5,6.5
238,2021-02-15T03:57:00,0.5,1.5,5,6.5
239,2021-02-15T03:58:00,1,2,5.5,7
240,2021-02-15T03:59:00,1,2,5.5,7
241,2021-02-15T04:00:00,1,2,5.5,7
242,2021-02-15T04:01:00,0.5,2,5.5,7
243,2021-02-15T04:02:00,0.5,2,5.5,7
244,2021-02-15T04:03:00,0.5,2,5.5,7
245,2021-02-15T04:04:00,0.5,2,5.5,7
246,2021-02-15T04:05:00,1,2.5,6,7.5
247,2021-02-15T04:06:00,1,2.5,6,7.5
248,2021-02-15T04:07:00,1,2.5,6,7.5
249,2021-02-15T04:08:00,0.5,2.5,6,7.5
250,2021-02-15T04:09:00,0.5,2.5,6,7.5
